Stations météo

réclame
Mon MeteoGroup
San Sebastian/Fuenterrabia, Espagne (8029): Température de l'air & dewpoint: 18.01.2018 06:00:00 - 24.01.2018 06:00:00 (CET)San Sebastian/Fuenterrabia, Espagne (8029): Vitesse du vent: 18.01.2018 06:00:00 - 24.01.2018 06:00:00 (CET)San Sebastian/Fuenterrabia, Espagne (8029): Direction du vent: 18.01.2018 06:00:00 - 24.01.2018 06:00:00 (CET)San Sebastian/Fuenterrabia, Espagne (8029): reduced air pressure: 18.01.2018 06:00:00 - 24.01.2018 06:00:00 (CET)San Sebastian/Fuenterrabia, Espagne (8029): visibility: 18.01.2018 06:00:00 - 24.01.2018 06:00:00 (CET)
Date & Time tt [°C] td [°C] ff [km/h] ff [knt] dd ppp [hPa] vv [km]
24.01.2018 06:00:00 7,0 7,0 5 3 SW - 9
24.01.2018 05:00:00 8,0 8,0 4 2 - - 9
24.01.2018 04:00:00 9,0 9,0 8 4 SW - 7
24.01.2018 03:00:00 10,0 10,0 5 3 ESE - 8
24.01.2018 02:00:00 10,0 10,0 2 1 - - 6
24.01.2018 01:00:00 12,0 11,0 4 2 - - 10
24.01.2018 00:00:00 12,0 11,0 4 2 SW - 10
23.01.2018 23:00:00 12,0 11,0 2 1 SW - 10
23.01.2018 22:00:00 12,0 11,0 2 1 - - 10
23.01.2018 21:00:00 12,0 11,0 4 2 - - 9
23.01.2018 20:00:00 13,0 12,0 0 0 N - 6
23.01.2018 19:00:00 14,0 12,2 2 1 - 1030,1 6
23.01.2018 18:00:00 14,0 12,0 4 2 N - 10
23.01.2018 17:00:00 15,0 12,0 5 3 NNE - 10
23.01.2018 16:00:00 15,0 11,6 4 2 ENE 1029,6 15
23.01.2018 15:00:00 15,0 12,0 5 3 NE - 10
23.01.2018 14:00:00 15,0 12,0 4 2 - - 10
23.01.2018 13:00:00 15,4 12,9 2 1 WSW 1030,3 12
23.01.2018 12:00:00 15,0 13,0 4 2 S - 10
23.01.2018 11:00:00 14,0 13,0 5 3 SW - 10
23.01.2018 10:00:00 13,2 12,4 5 3 S 1030,3 12
23.01.2018 09:00:00 13,0 13,0 4 2 - - 4,5
23.01.2018 08:00:00 13,0 13,0 5 3 SSW - 7
23.01.2018 07:00:00 13,0 12,7 5 3 SSW 1029,1 2,0
23.01.2018 06:00:00 13,0 13,0 5 3 S - 3,0
23.01.2018 05:00:00 13,0 13,0 8 4 WSW - 5
23.01.2018 04:00:00 13,0 13,0 11 6 W - 5
23.01.2018 03:00:00 13,0 13,0 9 5 WSW - 3,3
23.01.2018 02:00:00 13,0 13,0 9 5 WSW - 2,4
23.01.2018 01:00:00 13,0 13,0 5 3 SW - 3,3
23.01.2018 00:00:00 13,0 13,0 4 2 - - 3,7
22.01.2018 23:00:00 13,0 12,0 5 3 SSW - 2,2
22.01.2018 22:00:00 13,0 12,0 5 3 WSW - 2,1
22.01.2018 21:00:00 13,0 12,0 5 3 SW - 2,4
22.01.2018 20:00:00 13,0 12,0 4 2 - - 2,7
22.01.2018 19:00:00 12,8 12,0 9 5 WSW 1029,4 2,7
22.01.2018 18:00:00 13,0 12,0 13 7 WSW - 1,7
22.01.2018 17:00:00 13,0 12,0 13 7 WSW - 2,5
22.01.2018 16:00:00 15,5 9,6 24 13 WSW 1028,3 20
22.01.2018 15:00:00 15,0 10,0 11 6 WSW - 10
22.01.2018 14:00:00 15,0 10,0 21 11 W - 10
22.01.2018 13:00:00 15,6 8,8 22 12 SW 1028,6 20
22.01.2018 12:00:00 15,0 10,0 13 7 SW - 10
22.01.2018 11:00:00 14,0 11,0 5 3 SW - 10
22.01.2018 10:00:00 13,1 11,2 5 3 WSW 1028,8 20
22.01.2018 09:00:00 13,0 11,0 8 4 WSW - 10
22.01.2018 08:00:00 13,0 11,0 0 0 N - 10
22.01.2018 07:00:00 13,0 11,7 0 0 N 1028,1 15
22.01.2018 06:00:00 13,0 11,0 0 0 N - 10
22.01.2018 05:00:00 13,0 12,0 4 2 - - 10
22.01.2018 04:00:00 14,0 11,0 4 2 - - 10
22.01.2018 03:00:00 14,0 12,0 0 0 N - 10
22.01.2018 02:00:00 14,0 12,0 5 3 SW - 10
22.01.2018 01:00:00 14,0 12,0 2 1 - - 10
22.01.2018 00:00:00 14,0 12,0 8 4 SSW - 10
21.01.2018 23:00:00 14,0 12,0 8 4 WSW - 7
21.01.2018 22:00:00 14,0 12,0 4 2 - - 10
21.01.2018 21:00:00 15,0 11,0 5 3 W - 10
21.01.2018 20:00:00 15,0 11,0 9 5 W - 10
21.01.2018 19:00:00 14,4 11,2 11 6 WSW 1029,5 15
21.01.2018 18:00:00 14,0 12,0 4 2 - - 10
21.01.2018 17:00:00 14,0 12,0 8 4 - - 10
21.01.2018 16:00:00 14,4 11,4 9 5 W 1028,8 15
21.01.2018 15:00:00 15,0 12,0 9 5 W - 10
21.01.2018 14:00:00 14,0 12,0 13 7 WSW - 5
21.01.2018 13:00:00 14,1 11,6 15 8 W 1029,4 7
21.01.2018 12:00:00 14,0 12,0 8 4 - - 10
21.01.2018 11:00:00 13,0 12,0 9 5 W - 3,0
21.01.2018 10:00:00 13,2 12,3 15 8 W 1027,8 2,5
21.01.2018 09:00:00 13,0 12,0 21 11 WSW - 2,0
21.01.2018 08:00:00 14,0 12,0 11 6 - - 4,0
21.01.2018 07:00:00 13,6 12,2 26 14 W 1026,3 6
21.01.2018 06:00:00 14,0 12,0 26 14 W - 10
21.01.2018 05:00:00 14,0 12,0 22 12 W - 6
21.01.2018 04:00:00 13,0 12,0 15 8 W - 3,2
21.01.2018 03:00:00 13,0 12,0 15 8 - - 2,3
21.01.2018 02:00:00 13,0 12,0 11 6 - - 2,6
21.01.2018 01:00:00 13,0 12,0 15 8 - - 2,1
21.01.2018 00:00:00 13,0 12,0 16 9 WSW - 2,2
20.01.2018 23:00:00 13,0 12,0 11 6 W - 2,5
20.01.2018 22:00:00 14,0 12,0 11 6 W - 4,9
20.01.2018 21:00:00 13,0 12,0 8 4 - - 3,2
20.01.2018 20:00:00 14,0 11,0 8 4 - - 8
20.01.2018 19:00:00 14,2 10,8 11 6 WSW 1023,2 10
20.01.2018 18:00:00 15,0 11,0 9 5 - - 9
20.01.2018 17:00:00 14,0 10,0 18 10 SW - 10
20.01.2018 16:00:00 12,6 11,5 15 8 SW 1021,7 6
20.01.2018 15:00:00 13,0 11,0 24 13 SW - 8
20.01.2018 14:00:00 14,0 9,0 28 15 WSW - 7
20.01.2018 13:00:00 15,0 6,8 22 12 WSW 1022,2 15
20.01.2018 12:00:00 13,0 5,0 21 11 SW - 10
20.01.2018 11:00:00 13,0 5,0 22 12 SW - 10
20.01.2018 10:00:00 12,4 4,9 18 10 WSW 1022,5 10
20.01.2018 09:00:00 12,0 5,0 16 9 SW - 10
20.01.2018 08:00:00 11,0 6,0 15 8 SW - 10
20.01.2018 07:00:00 10,8 6,0 9 5 SW 1022,6 15
20.01.2018 06:00:00 10,0 6,0 9 5 SW - 10
20.01.2018 05:00:00 10,0 7,0 9 5 SSW - 10
20.01.2018 04:00:00 10,0 8,0 9 5 SW - 10
20.01.2018 03:00:00 11,0 8,0 8 4 WSW - 10
20.01.2018 02:00:00 12,0 7,0 4 2 - - 10
20.01.2018 01:00:00 11,0 8,0 0 0 N - 10
20.01.2018 00:00:00 11,0 8,0 2 1 - - 10
19.01.2018 23:00:00 12,0 9,0 5 3 - - 10
19.01.2018 22:00:00 12,0 8,0 8 4 WNW - 10
19.01.2018 21:00:00 12,0 8,0 9 5 W - 10
19.01.2018 20:00:00 12,0 8,0 13 7 - - 9
19.01.2018 19:00:00 11,8 7,7 18 10 WNW 1024,9 12
19.01.2018 18:00:00 12,0 8,0 4 2 - - 9
19.01.2018 17:00:00 12,0 8,0 18 10 SW - 10
19.01.2018 16:00:00 12,1 8,2 22 12 WSW 1023,5 9
19.01.2018 15:00:00 12,0 9,0 18 10 WSW - 9
19.01.2018 14:00:00 12,0 9,0 15 8 SW - 8
19.01.2018 13:00:00 12,6 10,1 8 4 WSW 1023,1 10
19.01.2018 12:00:00 12,0 10,0 4 2 - - 6
19.01.2018 11:00:00 12,0 10,0 11 6 WSW - 10
19.01.2018 10:00:00 11,4 9,1 9 5 SW 1022,5 10
19.01.2018 09:00:00 12,0 10,0 9 5 SW - 10
19.01.2018 08:00:00 12,0 10,0 13 7 WSW - 10
19.01.2018 07:00:00 12,2 10,3 9 5 W 1021,8 5
19.01.2018 06:00:00 12,0 10,0 11 6 WSW - 10
19.01.2018 05:00:00 12,0 10,0 8 4 SW - 8
19.01.2018 04:00:00 12,0 9,0 11 6 SW - 10
19.01.2018 03:00:00 12,0 9,0 8 4 SW - 10
19.01.2018 02:00:00 12,0 9,0 8 4 SW - 10
19.01.2018 01:00:00 12,0 9,0 9 5 SW - 10
19.01.2018 00:00:00 11,0 9,0 11 6 SW - 10
18.01.2018 23:00:00 11,0 9,0 5 3 SW - 7
18.01.2018 22:00:00 12,0 8,0 11 6 WSW - 10
18.01.2018 21:00:00 12,0 8,0 9 5 SW - 10
18.01.2018 20:00:00 12,0 8,0 9 5 SW - 10
18.01.2018 19:00:00 12,2 7,9 13 7 WSW 1023,3 10
18.01.2018 18:00:00 12,0 8,0 9 5 W - 10
18.01.2018 17:00:00 13,0 8,0 13 7 WNW - 10
18.01.2018 16:00:00 13,7 7,9 11 6 WNW 1023,0 10
18.01.2018 15:00:00 14,0 7,0 8 4 W - 10
18.01.2018 14:00:00 14,0 7,0 8 4 W - 10
18.01.2018 13:00:00 13,5 5,7 9 5 SW 1024,6 10
18.01.2018 12:00:00 12,0 6,0 5 3 SSW - 10
18.01.2018 11:00:00 9,0 5,0 9 5 S - 10
18.01.2018 10:00:00 6,6 4,4 11 6 S 1025,5 10
18.01.2018 09:00:00 6,0 4,0 11 6 S - 10
18.01.2018 08:00:00 6,0 4,0 8 4 S - 10
18.01.2018 07:00:00 5,8 4,4 8 4 S 1025,0 10
18.01.2018 06:00:00 7,0 5,0 11 6 S - 10

tt = Température de l'air
td = dewpoint
ff = Vitesse du vent
dd = Direction du vent
ppp = reduced air pressure
vv = visibility

stations d'obs. à proximité